Time,TemperatureF,DewpointF,PressureIn,WindDirection,WindDirectionDegrees,WindSpeedMPH,WindSpeedGustMPH,Humidity,HourlyPrecipIn,Conditions,Clouds,dailyrainin,SoftwareType,DateUTC
2013-02-06 00:05:00,80.7,72.8,29.88,ESE,109,1.0,2.0,77,0.00,,,0.00,Wunderground v.1.15,2013-02-05 14:05:00,
2013-02-06 00:10:00,80.6,72.7,29.88,ESE,108,3.0,3.0,77,0.00,,,0.00,Wunderground v.1.15,2013-02-05 14:10:00,
2013-02-06 00:15:00,80.5,73.0,29.88,ESE,108,0.0,3.0,78,0.00,,,0.00,Wunderground v.1.15,2013-02-05 14:15:00,
2013-02-06 00:21:00,80.4,72.9,29.87,ESE,109,0.0,1.0,78,0.00,,,0.00,Wunderground v.1.15,2013-02-05 14:21:00,
2013-02-06 00:27:00,80.5,73.0,29.87,ESE,109,0.0,2.0,78,0.00,,,0.00,Wunderground v.1.15,2013-02-05 14:27:00,
2013-02-06 00:33:00,80.4,72.9,29.87,ESE,108,0.0,1.0,78,0.00,,,0.00,Wunderground v.1.15,2013-02-05 14:33:00,
2013-02-06 00:38:00,80.0,72.9,29.87,ESE,109,0.0,1.0,79,0.00,,,0.00,Wunderground v.1.15,2013-02-05 14:38:00,
2013-02-06 00:44:00,79.9,72.8,29.87,ESE,109,1.0,3.0,79,0.00,,,0.00,Wunderground v.1.15,2013-02-05 14:44:00,
2013-02-06 00:50:00,79.8,72.7,29.86,ESE,109,0.0,1.0,79,0.00,,,0.00,Wunderground v.1.15,2013-02-05 14:50:00,
2013-02-06 00:55:00,79.4,72.7,29.86,ESE,108,0.0,1.0,80,0.00,,,0.00,Wunderground v.1.15,2013-02-05 14:55:00,
2013-02-06 01:00:00,78.9,72.6,29.86,ESE,109,1.0,1.0,81,0.00,,,0.00,Wunderground v.1.15,2013-02-05 15:00:00,
2013-02-06 01:06:00,78.5,72.5,29.86,ESE,109,0.0,1.0,82,0.00,,,0.00,Wunderground v.1.15,2013-02-05 15:06:00,
2013-02-06 01:12:00,78.3,72.3,29.85,ESE,108,0.0,0.0,82,0.00,,,0.00,Wunderground v.1.15,2013-02-05 15:12:00,
2013-02-06 01:17:00,78.3,72.7,29.85,ESE,109,1.0,1.0,83,0.00,,,0.00,Wunderground v.1.15,2013-02-05 15:17:00,
2013-02-06 01:23:00,78.4,72.8,29.85,ESE,108,1.0,1.0,83,0.00,,,0.00,Wunderground v.1.15,2013-02-05 15:23:00,
2013-02-06 01:29:00,78.5,72.9,29.85,ESE,109,0.0,1.0,83,0.00,,,0.00,Wunderground v.1.15,2013-02-05 15:29:00,
2013-02-06 01:35:00,78.4,72.8,29.84,ESE,109,0.0,0.0,83,0.00,,,0.00,Wunderground v.1.15,2013-02-05 15:35:00,
2013-02-06 01:40:00,78.4,72.8,29.84,ESE,108,0.0,0.0,83,0.00,,,0.00,Wunderground v.1.15,2013-02-05 15:40:00,
2013-02-06 01:46:00,78.2,72.6,29.84,ESE,108,0.0,0.0,83,0.00,,,0.00,Wunderground v.1.15,2013-02-05 15:46:00,
2013-02-06 01:52:00,78.2,72.3,29.84,ESE,108,1.0,1.0,82,0.00,,,0.00,Wunderground v.1.15,2013-02-05 15:52:00,
2013-02-06 01:58:00,78.2,72.3,29.84,ESE,108,0.0,1.0,82,0.00,,,0.00,Wunderground v.1.15,2013-02-05 15:58:00,
2013-02-06 02:03:00,78.5,72.2,29.83,ESE,108,1.0,3.0,81,0.00,,,0.00,Wunderground v.1.15,2013-02-05 16:03:00,
2013-02-06 02:08:00,78.7,72.7,29.83,ESE,108,0.0,3.0,82,0.00,,,0.00,Wunderground v.1.15,2013-02-05 16:08:00,
2013-02-06 02:13:00,78.6,72.6,29.83,ESE,108,0.0,1.0,82,0.00,,,0.00,Wunderground v.1.15,2013-02-05 16:13:00,
2013-02-06 02:18:00,78.4,72.4,29.83,ESE,109,0.0,1.0,82,0.00,,,0.00,Wunderground v.1.15,2013-02-05 16:18:00,
2013-02-06 02:23:00,78.5,72.5,29.83,ESE,108,0.0,1.0,82,0.00,,,0.00,Wunderground v.1.15,2013-02-05 16:23:00,
2013-02-06 02:28:00,78.4,72.4,29.83,ESE,109,0.0,1.0,82,0.00,,,0.00,Wunderground v.1.15,2013-02-05 16:28:00,
2013-02-06 02:33:00,78.5,72.5,29.83,ESE,108,1.0,3.0,82,0.00,,,0.00,Wunderground v.1.15,2013-02-05 16:33:00,
2013-02-06 02:38:00,78.6,73.0,29.83,ESE,109,1.0,4.0,83,0.00,,,0.00,Wunderground v.1.15,2013-02-05 16:38:00,
2013-02-06 02:43:00,78.2,73.0,29.83,ESE,109,0.0,3.0,84,0.00,,,0.00,Wunderground v.1.15,2013-02-05 16:43:00,
2013-02-06 02:48:00,77.7,72.8,29.83,ESE,109,2.0,3.0,85,0.00,,,0.00,Wunderground v.1.15,2013-02-05 16:48:00,
2013-02-06 02:53:00,77.3,73.1,29.83,ESE,109,0.0,2.0,87,0.00,,,0.00,Wunderground v.1.15,2013-02-05 16:53:00,
2013-02-06 02:58:00,77.0,73.2,29.83,ESE,109,0.0,2.0,88,0.00,,,0.00,Wunderground v.1.15,2013-02-05 16:58:00,
2013-02-06 03:03:00,76.8,73.3,29.83,ESE,108,0.0,1.0,89,0.00,,,0.00,Wunderground v.1.15,2013-02-05 17:03:00,
2013-02-06 03:08:00,76.5,73.0,29.82,ESE,109,0.0,1.0,89,0.00,,,0.00,Wunderground v.1.15,2013-02-05 17:08:00,
2013-02-06 03:13:00,76.3,72.8,29.82,ESE,108,0.0,1.0,89,0.00,,,0.00,Wunderground v.1.15,2013-02-05 17:13:00,
2013-02-06 03:18:00,76.2,73.1,29.82,ESE,109,0.0,1.0,90,0.00,,,0.00,Wunderground v.1.15,2013-02-05 17:18:00,
2013-02-06 03:23:00,76.0,72.9,29.82,ESE,109,0.0,0.0,90,0.00,,,0.00,Wunderground v.1.15,2013-02-05 17:23:00,
2013-02-06 03:28:00,75.8,72.7,29.82,ESE,108,0.0,0.0,90,0.00,,,0.00,Wunderground v.1.15,2013-02-05 17:28:00,
2013-02-06 03:33:00,75.7,72.9,29.82,ESE,109,0.0,0.0,91,0.00,,,0.00,Wunderground v.1.15,2013-02-05 17:33:00,
2013-02-06 03:38:00,75.7,72.9,29.83,ESE,108,0.0,1.0,91,0.00,,,0.00,Wunderground v.1.15,2013-02-05 17:38:00,
2013-02-06 03:43:00,75.7,73.2,29.83,ESE,109,0.0,0.0,92,0.00,,,0.00,Wunderground v.1.15,2013-02-05 17:43:00,
2013-02-06 03:48:00,75.8,73.3,29.83,ESE,108,0.0,0.0,92,0.00,,,0.00,Wunderground v.1.15,2013-02-05 17:48:00,
2013-02-06 03:53:00,75.8,73.0,29.83,ESE,109,0.0,3.0,91,0.00,,,0.00,Wunderground v.1.15,2013-02-05 17:53:00,
2013-02-06 03:58:00,75.8,73.0,29.83,ESE,109,0.0,3.0,91,0.00,,,0.00,Wunderground v.1.15,2013-02-05 17:58:00,
2013-02-06 04:03:00,75.7,72.9,29.83,ESE,108,0.0,0.0,91,0.00,,,0.00,Wunderground v.1.15,2013-02-05 18:03:00,
2013-02-06 04:08:00,75.6,72.8,29.83,ESE,108,0.0,1.0,91,0.00,,,0.00,Wunderground v.1.15,2013-02-05 18:08:00,
2013-02-06 04:13:00,75.5,72.7,29.83,ESE,108,0.0,1.0,91,0.00,,,0.00,Wunderground v.1.15,2013-02-05 18:13:00,
2013-02-06 04:18:00,75.5,73.0,29.83,ESE,108,0.0,1.0,92,0.00,,,0.00,Wunderground v.1.15,2013-02-05 18:18:00,
2013-02-06 04:23:00,75.4,72.6,29.83,ESE,109,0.0,0.0,91,0.00,,,0.00,Wunderground v.1.15,2013-02-05 18:23:00,
2013-02-06 04:28:00,75.5,73.0,29.84,ESE,108,0.0,1.0,92,0.00,,,0.00,Wunderground v.1.15,2013-02-05 18:28:00,
2013-02-06 04:33:00,75.6,73.1,29.84,ESE,109,0.0,0.0,92,0.00,,,0.00,Wunderground v.1.15,2013-02-05 18:33:00,
2013-02-06 04:38:00,75.6,73.1,29.84,ESE,109,0.0,1.0,92,0.00,,,0.00,Wunderground v.1.15,2013-02-05 18:38:00,
2013-02-06 04:43:00,75.6,73.1,29.84,ESE,108,0.0,1.0,92,0.00,,,0.00,Wunderground v.1.15,2013-02-05 18:43:00,
2013-02-06 04:48:00,75.7,73.2,29.85,ESE,109,2.0,2.0,92,0.00,,,0.00,Wunderground v.1.15,2013-02-05 18:48:00,
2013-02-06 04:53:00,75.8,73.3,29.85,ESE,108,0.0,2.0,92,0.20,,,0.02,Wunderground v.1.15,2013-02-05 18:53:00,
2013-02-06 04:58:00,75.7,73.2,29.85,ESE,108,0.0,2.0,92,0.11,,,0.02,Wunderground v.1.15,2013-02-05 18:58:00,
2013-02-06 05:03:00,75.5,73.3,29.85,ESE,109,0.0,1.0,93,0.08,,,0.02,Wunderground v.1.15,2013-02-05 19:03:00,
2013-02-06 05:08:00,75.1,72.9,29.84,ESE,108,0.0,1.0,93,0.05,,,0.02,Wunderground v.1.15,2013-02-05 19:08:00,
2013-02-06 05:13:00,74.9,73.1,29.84,ESE,109,0.0,0.0,94,0.00,,,0.02,Wunderground v.1.15,2013-02-05 19:13:00,
2013-02-06 05:18:00,74.7,72.9,29.84,ESE,109,1.0,1.0,94,0.00,,,0.02,Wunderground v.1.15,2013-02-05 19:18:00,
2013-02-06 05:23:00,74.4,72.6,29.84,ESE,108,0.0,0.0,94,0.00,,,0.02,Wunderground v.1.15,2013-02-05 19:23:00,
2013-02-06 05:28:00,74.2,72.7,29.84,ESE,109,1.0,1.0,95,0.00,,,0.02,Wunderground v.1.15,2013-02-05 19:28:00,
2013-02-06 05:33:00,73.9,72.4,29.84,ESE,109,0.0,0.0,95,0.00,,,0.02,Wunderground v.1.15,2013-02-05 19:33:00,
2013-02-06 05:38:00,73.8,72.6,29.85,ESE,109,0.0,1.0,96,0.00,,,0.02,Wunderground v.1.15,2013-02-05 19:38:00,
2013-02-06 05:43:00,73.7,72.5,29.85,ESE,108,0.0,1.0,96,0.00,,,0.02,Wunderground v.1.15,2013-02-05 19:43:00,
2013-02-06 05:48:00,73.8,72.6,29.85,ESE,109,0.0,1.0,96,0.00,,,0.02,Wunderground v.1.15,2013-02-05 19:48:00,
2013-02-06 05:53:00,74.0,73.1,29.86,ESE,108,1.0,4.0,97,0.00,,,0.02,Wunderground v.1.15,2013-02-05 19:53:00,
2013-02-06 05:58:00,74.3,73.4,29.86,ESE,108,1.0,4.0,97,0.00,,,0.03,Wunderground v.1.15,2013-02-05 19:58:00,
2013-02-06 06:03:00,74.5,73.6,29.86,ESE,108,3.0,3.0,97,0.10,,,0.04,Wunderground v.1.15,2013-02-05 20:03:00,
2013-02-06 06:08:00,74.5,73.6,29.86,ESE,109,2.0,3.0,97,0.07,,,0.04,Wunderground v.1.15,2013-02-05 20:08:00,
2013-02-06 06:13:00,74.3,73.1,29.86,ESE,109,3.0,3.0,96,0.04,,,0.04,Wunderground v.1.15,2013-02-05 20:13:00,
2013-02-06 06:18:00,74.3,73.1,29.86,ESE,108,0.0,3.0,96,0.00,,,0.04,Wunderground v.1.15,2013-02-05 20:18:00,
2013-02-06 06:23:00,74.2,72.7,29.86,ESE,109,0.0,1.0,95,0.00,,,0.04,Wunderground v.1.15,2013-02-05 20:23:00,
2013-02-06 06:28:00,74.0,72.5,29.86,ESE,108,0.0,1.0,95,0.00,,,0.04,Wunderground v.1.15,2013-02-05 20:28:00,
2013-02-06 06:33:00,73.8,72.3,29.87,ESE,108,0.0,1.0,95,0.00,,,0.04,Wunderground v.1.15,2013-02-05 20:33:00,
2013-02-06 06:38:00,73.8,72.6,29.87,ESE,109,0.0,1.0,96,0.00,,,0.04,Wunderground v.1.15,2013-02-05 20:38:00,
2013-02-06 06:43:00,73.9,72.7,29.87,ESE,109,0.0,1.0,96,0.00,,,0.04,Wunderground v.1.15,2013-02-05 20:43:00,
2013-02-06 06:48:00,74.0,73.1,29.87,ESE,109,0.0,1.0,97,0.00,,,0.04,Wunderground v.1.15,2013-02-05 20:48:00,
2013-02-06 06:53:00,74.1,73.2,29.87,ESE,108,0.0,1.0,97,0.00,,,0.04,Wunderground v.1.15,2013-02-05 20:53:00,
2013-02-06 06:58:00,74.2,73.3,29.87,ESE,109,1.0,1.0,97,0.00,,,0.04,Wunderground v.1.15,2013-02-05 20:58:00,
2013-02-06 07:03:00,74.3,73.4,29.87,ESE,109,0.0,1.0,97,0.00,,,0.04,Wunderground v.1.15,2013-02-05 21:03:00,
2013-02-06 07:08:00,74.5,73.6,29.87,ESE,109,0.0,2.0,97,0.00,,,0.04,Wunderground v.1.15,2013-02-05 21:08:00,
2013-02-06 07:13:00,74.6,73.7,29.88,ESE,109,0.0,1.0,97,0.00,,,0.04,Wunderground v.1.15,2013-02-05 21:13:00,
2013-02-06 07:18:00,75.0,74.1,29.87,ESE,109,0.0,1.0,97,0.00,,,0.04,Wunderground v.1.15,2013-02-05 21:18:00,
2013-02-06 07:23:00,76.1,75.5,29.88,ESE,108,0.0,1.0,98,0.00,,,0.04,Wunderground v.1.15,2013-02-05 21:23:00,
2013-02-06 07:28:00,77.2,76.3,29.87,ESE,109,0.0,1.0,97,0.00,,,0.04,Wunderground v.1.15,2013-02-05 21:28:00,
2013-02-06 07:34:00,77.5,75.6,29.87,ESE,108,0.0,2.0,94,0.00,,,0.04,Wunderground v.1.15,2013-02-05 21:34:00,
2013-02-06 07:39:00,77.7,75.5,29.87,ESE,109,1.0,2.0,93,0.00,,,0.04,Wunderground v.1.15,2013-02-05 21:39:00,
2013-02-06 07:44:00,78.8,76.6,29.87,ESE,109,0.0,1.0,93,0.00,,,0.04,Wunderground v.1.15,2013-02-05 21:44:00,
2013-02-06 07:49:00,79.7,76.2,29.87,ESE,109,1.0,2.0,89,0.00,,,0.04,Wunderground v.1.15,2013-02-05 21:49:00,
2013-02-06 07:54:00,80.7,76.1,29.87,ESE,108,1.0,1.0,86,0.00,,,0.04,Wunderground v.1.15,2013-02-05 21:54:00,
2013-02-06 07:59:00,81.5,76.2,29.87,ESE,108,1.0,2.0,84,0.00,,,0.04,Wunderground v.1.15,2013-02-05 21:59:00,
2013-02-06 08:04:00,82.1,75.7,29.87,ESE,109,0.0,2.0,81,0.00,,,0.04,Wunderground v.1.15,2013-02-05 22:04:00,
2013-02-06 08:09:00,83.0,76.6,29.88,ESE,108,0.0,2.0,81,0.00,,,0.04,Wunderground v.1.15,2013-02-05 22:09:00,
2013-02-06 08:14:00,83.0,75.8,29.88,ESE,109,4.0,4.0,79,0.00,,,0.04,Wunderground v.1.15,2013-02-05 22:14:00,
2013-02-06 08:19:00,82.9,75.7,29.88,ESE,109,2.0,4.0,79,0.00,,,0.04,Wunderground v.1.15,2013-02-05 22:19:00,
2013-02-06 08:24:00,83.2,75.6,29.88,ESE,108,4.0,7.0,78,0.00,,,0.04,Wunderground v.1.15,2013-02-05 22:24:00,
2013-02-06 08:29:00,83.6,75.6,29.88,ESE,108,0.0,7.0,77,0.00,,,0.04,Wunderground v.1.15,2013-02-05 22:29:00,
2013-02-06 08:34:00,83.7,75.3,29.89,ESE,108,3.0,8.0,76,0.00,,,0.04,Wunderground v.1.15,2013-02-05 22:34:00,
2013-02-06 08:39:00,83.8,75.0,29.89,ESE,108,2.0,8.0,75,0.00,,,0.04,Wunderground v.1.15,2013-02-05 22:39:00,
2013-02-06 08:44:00,84.1,74.9,29.89,ESE,108,1.0,5.0,74,0.00,,,0.04,Wunderground v.1.15,2013-02-05 22:44:00,
2013-02-06 08:49:00,85.0,76.2,29.89,ESE,109,1.0,5.0,75,0.00,,,0.04,Wunderground v.1.15,2013-02-05 22:49:00,
2013-02-06 08:54:00,85.7,75.6,29.89,ESE,108,3.0,5.0,72,0.00,,,0.04,Wunderground v.1.15,2013-02-05 22:54:00,
2013-02-06 08:59:00,85.7,75.2,29.89,ESE,108,4.0,7.0,71,0.00,,,0.04,Wunderground v.1.15,2013-02-05 22:59:00,
2013-02-06 09:04:00,85.8,74.9,29.89,ESE,109,3.0,8.0,70,0.00,,,0.04,Wunderground v.1.15,2013-02-05 23:04:00,
2013-02-06 09:09:00,86.2,75.3,29.89,ESE,109,1.0,8.0,70,0.00,,,0.04,Wunderground v.1.15,2013-02-05 23:09:00,
2013-02-06 09:14:00,86.3,74.5,29.89,ESE,109,1.0,7.0,68,0.00,,,0.04,Wunderground v.1.15,2013-02-05 23:14:00,
2013-02-06 09:19:00,86.6,74.8,29.89,ESE,108,3.0,7.0,68,0.00,,,0.04,Wunderground v.1.15,2013-02-05 23:19:00,
2013-02-06 09:24:00,87.1,75.3,29.89,ESE,108,2.0,7.0,68,0.00,,,0.04,Wunderground v.1.15,2013-02-05 23:24:00,
2013-02-06 09:29:00,86.9,75.5,29.89,ESE,108,4.0,10.0,69,0.00,,,0.04,Wunderground v.1.15,2013-02-05 23:29:00,
2013-02-06 09:34:00,86.5,75.1,29.89,ESE,108,1.0,8.0,69,0.00,,,0.04,Wunderground v.1.15,2013-02-05 23:34:00,
2013-02-06 09:39:00,86.6,75.2,29.89,ESE,108,6.0,8.0,69,0.00,,,0.04,Wunderground v.1.15,2013-02-05 23:39:00,
2013-02-06 09:44:00,87.2,75.3,29.89,ESE,109,2.0,7.0,68,0.00,,,0.04,Wunderground v.1.15,2013-02-05 23:44:00,
2013-02-06 09:49:00,87.5,75.6,29.89,ESE,109,8.0,8.0,68,0.00,,,0.04,Wunderground v.1.15,2013-02-05 23:49:00,
2013-02-06 09:54:00,87.0,73.8,29.89,ESE,108,2.0,12.0,65,0.00,,,0.04,Wunderground v.1.15,2013-02-05 23:54:00,
2013-02-06 09:59:00,87.3,75.0,29.89,ESE,106,2.0,12.0,67,0.00,,,0.04,Wunderground v.1.15,2013-02-05 23:59:00,
2013-02-06 10:04:00,88.3,75.0,29.89,ESE,105,4.0,9.0,65,0.00,,,0.04,Wunderground v.1.15,2013-02-06 00:04:00,
2013-02-06 10:09:00,88.0,73.3,29.88,ESE,106,5.0,16.0,62,0.00,,,0.04,Wunderground v.1.15,2013-02-06 00:09:00,
2013-02-06 10:14:00,88.1,73.4,29.88,ESE,106,1.0,12.0,62,0.00,,,0.04,Wunderground v.1.15,2013-02-06 00:14:00,
2013-02-06 10:19:00,88.2,73.0,29.88,ESE,106,4.0,12.0,61,0.00,,,0.04,Wunderground v.1.15,2013-02-06 00:19:00,
2013-02-06 10:24:00,88.2,73.5,29.88,ESE,105,8.0,13.0,62,0.00,,,0.04,Wunderground v.1.15,2013-02-06 00:24:00,
2013-02-06 10:29:00,88.2,72.6,29.88,ESE,106,10.0,13.0,60,0.00,,,0.04,Wunderground v.1.15,2013-02-06 00:29:00,
2013-02-06 10:34:00,88.3,73.1,29.87,ESE,105,4.0,13.0,61,0.00,,,0.04,Wunderground v.1.15,2013-02-06 00:34:00,
2013-02-06 10:39:00,88.3,73.6,29.87,ESE,104,10.0,13.0,62,0.00,,,0.04,Wunderground v.1.15,2013-02-06 00:39:00,
2013-02-06 10:44:00,88.2,73.5,29.87,ESE,104,3.0,14.0,62,0.00,,,0.04,Wunderground v.1.15,2013-02-06 00:44:00,
2013-02-06 10:49:00,88.8,73.6,29.87,ESE,105,3.0,14.0,61,0.00,,,0.04,Wunderground v.1.15,2013-02-06 00:49:00,
2013-02-06 10:54:00,89.2,74.0,29.87,ESE,104,3.0,8.0,61,0.00,,,0.04,Wunderground v.1.15,2013-02-06 00:54:00,
2013-02-06 10:59:00,89.2,73.5,29.86,ESE,104,2.0,14.0,60,0.00,,,0.04,Wunderground v.1.15,2013-02-06 00:59:00,
2013-02-06 11:04:00,89.6,73.4,29.86,ESE,104,1.0,10.0,59,0.00,,,0.04,Wunderground v.1.15,2013-02-06 01:04:00,
2013-02-06 11:09:00,89.2,72.5,29.86,ESE,104,3.0,16.0,58,0.00,,,0.04,Wunderground v.1.15,2013-02-06 01:09:00,
2013-02-06 11:14:00,89.3,72.1,29.86,ESE,104,8.0,15.0,57,0.00,,,0.04,Wunderground v.1.15,2013-02-06 01:14:00,
2013-02-06 11:19:00,89.1,72.9,29.86,ESE,104,5.0,15.0,59,0.00,,,0.04,Wunderground v.1.15,2013-02-06 01:19:00,
2013-02-06 11:24:00,89.4,74.2,29.85,ESE,104,8.0,10.0,61,0.00,,,0.04,Wunderground v.1.15,2013-02-06 01:24:00,
2013-02-06 11:29:00,89.6,72.3,29.86,ESE,104,2.0,10.0,57,0.00,,,0.04,Wunderground v.1.15,2013-02-06 01:29:00,
2013-02-06 11:34:00,89.9,71.6,29.86,ESE,104,9.0,10.0,55,0.00,,,0.04,Wunderground v.1.15,2013-02-06 01:34:00,
2013-02-06 11:39:00,90.4,74.1,29.86,ESE,104,6.0,13.0,59,0.00,,,0.04,Wunderground v.1.15,2013-02-06 01:39:00,
2013-02-06 11:45:00,90.8,72.4,29.85,ESE,104,5.0,10.0,55,0.00,,,0.04,Wunderground v.1.15,2013-02-06 01:45:00,
2013-02-06 11:50:00,90.1,71.8,29.85,ESE,104,1.0,6.0,55,0.00,,,0.04,Wunderground v.1.15,2013-02-06 01:50:00,
2013-02-06 11:55:00,89.9,73.1,29.85,ESE,104,7.0,12.0,58,0.00,,,0.04,Wunderground v.1.15,2013-02-06 01:55:00,
2013-02-06 12:00:00,90.2,73.4,29.85,ESE,104,5.0,5.0,58,0.00,,,0.04,Wunderground v.1.15,2013-02-06 02:00:00,
2013-02-06 12:05:00,90.1,72.8,29.85,ESE,104,6.0,15.0,57,0.00,,,0.04,Wunderground v.1.15,2013-02-06 02:05:00,
2013-02-06 12:10:00,90.2,72.9,29.84,ESE,104,4.0,7.0,57,0.00,,,0.04,Wunderground v.1.15,2013-02-06 02:10:00,
2013-02-06 12:15:00,90.7,73.9,29.84,ESE,104,1.0,7.0,58,0.00,,,0.04,Wunderground v.1.15,2013-02-06 02:15:00,
2013-02-06 12:20:00,90.1,72.8,29.84,ESE,104,3.0,5.0,57,0.00,,,0.04,Wunderground v.1.15,2013-02-06 02:20:00,
2013-02-06 12:25:00,90.9,75.1,29.84,ESE,105,5.0,9.0,60,0.00,,,0.04,Wunderground v.1.15,2013-02-06 02:25:00,
2013-02-06 12:30:00,91.2,71.7,29.83,ESE,105,4.0,11.0,53,0.00,,,0.04,Wunderground v.1.15,2013-02-06 02:30:00,
2013-02-06 12:35:00,91.0,73.7,29.83,ESE,104,4.0,11.0,57,0.00,,,0.04,Wunderground v.1.15,2013-02-06 02:35:00,
2013-02-06 12:40:00,90.9,74.6,29.83,ESE,104,6.0,12.0,59,0.00,,,0.04,Wunderground v.1.15,2013-02-06 02:40:00,
2013-02-06 12:45:00,91.0,74.2,29.83,ESE,103,9.0,12.0,58,0.00,,,0.04,Wunderground v.1.15,2013-02-06 02:45:00,
2013-02-06 12:51:00,90.4,73.1,29.82,ESE,103,2.0,7.0,57,0.00,,,0.04,Wunderground v.1.15,2013-02-06 02:51:00,
2013-02-06 12:56:00,90.6,72.2,29.82,ESE,103,7.0,13.0,55,0.00,,,0.04,Wunderground v.1.15,2013-02-06 02:56:00,
2013-02-06 13:01:00,90.6,72.8,29.82,ESE,104,6.0,9.0,56,0.00,,,0.04,Wunderground v.1.15,2013-02-06 03:01:00,
2013-02-06 13:06:00,90.7,74.9,29.81,ESE,104,2.0,9.0,60,0.00,,,0.04,Wunderground v.1.15,2013-02-06 03:06:00,
2013-02-06 13:11:00,91.0,74.2,29.81,ESE,104,2.0,7.0,58,0.00,,,0.04,Wunderground v.1.15,2013-02-06 03:11:00,
2013-02-06 13:16:00,90.9,73.6,29.81,ESE,104,4.0,11.0,57,0.00,,,0.04,Wunderground v.1.15,2013-02-06 03:16:00,
2013-02-06 13:21:00,90.6,74.3,29.81,ESE,104,2.0,4.0,59,0.00,,,0.04,Wunderground v.1.15,2013-02-06 03:21:00,
2013-02-06 13:26:00,90.0,73.7,29.80,ESE,104,4.0,9.0,59,0.00,,,0.04,Wunderground v.1.15,2013-02-06 03:26:00,
2013-02-06 13:31:00,90.0,73.7,29.80,ESE,105,4.0,6.0,59,0.00,,,0.04,Wunderground v.1.15,2013-02-06 03:31:00,
2013-02-06 13:36:00,89.7,73.5,29.80,ESE,104,7.0,14.0,59,0.00,,,0.04,Wunderground v.1.15,2013-02-06 03:36:00,
2013-02-06 13:41:00,89.3,73.1,29.80,ESE,104,4.0,10.0,59,0.00,,,0.04,Wunderground v.1.15,2013-02-06 03:41:00,
2013-02-06 13:46:00,89.9,72.6,29.80,ESE,104,7.0,10.0,57,0.00,,,0.04,Wunderground v.1.15,2013-02-06 03:46:00,
2013-02-06 13:51:00,89.7,71.9,29.80,ESE,106,3.0,6.0,56,0.00,,,0.04,Wunderground v.1.15,2013-02-06 03:51:00,
2013-02-06 13:56:00,89.5,71.2,29.80,ESE,106,2.0,10.0,55,0.00,,,0.04,Wunderground v.1.15,2013-02-06 03:56:00,
2013-02-06 14:01:00,89.3,71.0,29.80,ESE,106,3.0,10.0,55,0.00,,,0.04,Wunderground v.1.15,2013-02-06 04:01:00,
2013-02-06 14:06:00,89.8,70.9,29.79,ESE,106,7.0,11.0,54,0.00,,,0.04,Wunderground v.1.15,2013-02-06 04:06:00,
2013-02-06 14:11:00,89.1,71.9,29.79,ESE,106,4.0,8.0,57,0.00,,,0.04,Wunderground v.1.15,2013-02-06 04:11:00,
2013-02-06 14:16:00,88.5,69.2,29.79,ESE,106,3.0,8.0,53,0.00,,,0.04,Wunderground v.1.15,2013-02-06 04:16:00,
2013-02-06 14:21:00,88.7,70.5,29.79,ESE,106,1.0,3.0,55,0.00,,,0.04,Wunderground v.1.15,2013-02-06 04:21:00,
2013-02-06 14:26:00,88.9,71.2,29.79,ESE,106,4.0,10.0,56,0.00,,,0.04,Wunderground v.1.15,2013-02-06 04:26:00,
2013-02-06 14:31:00,88.8,72.1,29.79,ESE,106,5.0,5.0,58,0.00,,,0.04,Wunderground v.1.15,2013-02-06 04:31:00,
2013-02-06 14:36:00,89.5,72.8,29.78,ESE,108,2.0,13.0,58,0.00,,,0.04,Wunderground v.1.15,2013-02-06 04:36:00,
2013-02-06 14:41:00,90.1,72.3,29.78,ESE,108,7.0,10.0,56,0.00,,,0.04,Wunderground v.1.15,2013-02-06 04:41:00,
2013-02-06 14:46:00,89.4,71.1,29.78,ESE,107,3.0,14.0,55,0.00,,,0.04,Wunderground v.1.15,2013-02-06 04:46:00,
2013-02-06 14:51:00,88.5,71.3,29.78,ESE,109,7.0,9.0,57,0.00,,,0.04,Wunderground v.1.15,2013-02-06 04:51:00,
2013-02-06 14:56:00,88.2,72.1,29.78,ESE,109,1.0,9.0,59,0.00,,,0.04,Wunderground v.1.15,2013-02-06 04:56:00,
2013-02-06 15:00:00,88.1,72.0,29.78,ESE,108,2.0,9.0,59,0.00,,,0.04,Wunderground v.1.15,2013-02-06 05:00:00,
2013-02-06 15:01:00,88.1,73.0,29.78,ESE,109,1.0,5.0,61,0.00,,,0.04,Wunderground v.1.15,2013-02-06 05:01:00,
2013-02-06 15:06:00,87.7,72.6,29.78,ESE,108,7.0,12.0,61,0.00,,,0.04,Wunderground v.1.15,2013-02-06 05:06:00,
2013-02-06 15:11:00,87.7,72.6,29.78,ESE,107,4.0,6.0,61,0.00,,,0.04,Wunderground v.1.15,2013-02-06 05:11:00,
2013-02-06 15:16:00,87.9,71.3,29.78,ESE,107,4.0,8.0,58,0.00,,,0.04,Wunderground v.1.15,2013-02-06 05:16:00,
2013-02-06 15:21:00,87.8,71.7,29.78,ESE,108,2.0,6.0,59,0.00,,,0.04,Wunderground v.1.15,2013-02-06 05:21:00,
2013-02-06 15:26:00,88.7,71.0,29.78,ESE,108,4.0,9.0,56,0.00,,,0.04,Wunderground v.1.15,2013-02-06 05:26:00,
2013-02-06 15:31:00,89.1,72.4,29.78,ESE,108,3.0,8.0,58,0.00,,,0.04,Wunderground v.1.15,2013-02-06 05:31:00,
2013-02-06 15:36:00,89.4,71.1,29.78,ESE,107,6.0,11.0,55,0.00,,,0.04,Wunderground v.1.15,2013-02-06 05:36:00,
2013-02-06 15:41:00,89.3,69.4,29.78,ESE,108,4.0,7.0,52,0.00,,,0.04,Wunderground v.1.15,2013-02-06 05:41:00,
2013-02-06 15:46:00,89.6,70.8,29.78,ESE,108,7.0,9.0,54,0.00,,,0.04,Wunderground v.1.15,2013-02-06 05:46:00,
2013-02-06 15:51:00,89.7,70.8,29.77,ESE,108,11.0,11.0,54,0.00,,,0.04,Wunderground v.1.15,2013-02-06 05:51:00,
2013-02-06 15:56:00,89.3,69.9,29.77,ESE,109,6.0,12.0,53,0.00,,,0.04,Wunderground v.1.15,2013-02-06 05:56:00,
2013-02-06 16:01:00,89.5,71.7,29.77,ESE,108,2.0,5.0,56,0.00,,,0.04,Wunderground v.1.15,2013-02-06 06:01:00,
2013-02-06 16:06:00,88.9,72.2,29.77,ESE,107,1.0,11.0,58,0.00,,,0.04,Wunderground v.1.15,2013-02-06 06:06:00,
2013-02-06 16:11:00,88.7,71.0,29.77,ESE,107,5.0,9.0,56,0.00,,,0.04,Wunderground v.1.15,2013-02-06 06:11:00,
2013-02-06 16:16:00,88.7,70.5,29.77,ESE,108,7.0,11.0,55,0.00,,,0.04,Wunderground v.1.15,2013-02-06 06:16:00,
2013-02-06 16:21:00,88.7,69.9,29.77,ESE,107,3.0,9.0,54,0.00,,,0.04,Wunderground v.1.15,2013-02-06 06:21:00,
2013-02-06 16:26:00,88.5,69.7,29.77,ESE,107,10.0,13.0,54,0.00,,,0.04,Wunderground v.1.15,2013-02-06 06:26:00,
2013-02-06 16:31:00,88.5,70.3,29.77,ESE,110,6.0,12.0,55,0.00,,,0.04,Wunderground v.1.15,2013-02-06 06:31:00,
2013-02-06 16:36:00,88.3,70.6,29.77,ESE,107,6.0,16.0,56,0.00,,,0.04,Wunderground v.1.15,2013-02-06 06:36:00,
2013-02-06 16:41:00,88.2,70.5,29.77,ESE,107,6.0,10.0,56,0.00,,,0.04,Wunderground v.1.15,2013-02-06 06:41:00,
2013-02-06 16:46:00,88.0,70.3,29.77,ESE,109,4.0,10.0,56,0.00,,,0.04,Wunderground v.1.15,2013-02-06 06:46:00,
2013-02-06 16:51:00,88.1,70.4,29.77,ESE,108,2.0,6.0,56,0.00,,,0.04,Wunderground v.1.15,2013-02-06 06:51:00,
2013-02-06 16:56:00,87.8,70.1,29.77,ESE,108,2.0,12.0,56,0.00,,,0.04,Wunderground v.1.15,2013-02-06 06:56:00,
2013-02-06 17:01:00,87.5,71.4,29.77,ESE,109,7.0,10.0,59,0.00,,,0.04,Wunderground v.1.15,2013-02-06 07:01:00,
2013-02-06 17:06:00,87.5,71.4,29.77,ESE,108,4.0,10.0,59,0.00,,,0.04,Wunderground v.1.15,2013-02-06 07:06:00,
2013-02-06 17:11:00,87.5,71.4,29.77,ESE,108,3.0,9.0,59,0.00,,,0.04,Wunderground v.1.15,2013-02-06 07:11:00,
2013-02-06 17:16:00,87.7,71.6,29.77,ESE,109,2.0,9.0,59,0.00,,,0.04,Wunderground v.1.15,2013-02-06 07:16:00,
2013-02-06 17:21:00,87.7,71.1,29.78,ESE,109,6.0,8.0,58,0.00,,,0.04,Wunderground v.1.15,2013-02-06 07:21:00,
2013-02-06 17:26:00,87.3,71.2,29.78,ESE,109,4.0,10.0,59,0.00,,,0.04,Wunderground v.1.15,2013-02-06 07:26:00,
2013-02-06 17:31:00,86.8,71.7,29.78,ESE,110,7.0,7.0,61,0.00,,,0.04,Wunderground v.1.15,2013-02-06 07:31:00,
2013-02-06 17:36:00,86.3,71.7,29.78,ESE,110,5.0,10.0,62,0.00,,,0.04,Wunderground v.1.15,2013-02-06 07:36:00,
2013-02-06 17:41:00,86.1,72.0,29.78,ESE,110,2.0,5.0,63,0.00,,,0.04,Wunderground v.1.15,2013-02-06 07:41:00,
2013-02-06 17:46:00,85.9,71.8,29.78,ESE,110,2.0,8.0,63,0.00,,,0.04,Wunderground v.1.15,2013-02-06 07:46:00,
2013-02-06 17:51:00,85.8,71.7,29.78,ESE,110,2.0,3.0,63,0.00,,,0.04,Wunderground v.1.15,2013-02-06 07:51:00,
2013-02-06 17:56:00,85.6,71.6,29.79,ESE,110,6.0,10.0,63,0.00,,,0.04,Wunderground v.1.15,2013-02-06 07:56:00,
2013-02-06 18:01:00,85.2,71.2,29.79,ESE,108,2.0,4.0,63,0.00,,,0.04,Wunderground v.1.15,2013-02-06 08:01:00,
2013-02-06 18:06:00,84.8,71.3,29.79,ESE,109,0.0,7.0,64,0.00,,,0.04,Wunderground v.1.15,2013-02-06 08:06:00,
2013-02-06 18:11:00,84.5,71.4,29.79,ESE,108,6.0,6.0,65,0.00,,,0.04,Wunderground v.1.15,2013-02-06 08:11:00,
2013-02-06 18:16:00,84.1,71.5,29.79,ESE,108,3.0,8.0,66,0.00,,,0.04,Wunderground v.1.15,2013-02-06 08:16:00,
2013-02-06 18:21:00,83.9,71.3,29.80,ESE,109,3.0,5.0,66,0.00,,,0.04,Wunderground v.1.15,2013-02-06 08:21:00,
2013-02-06 18:26:00,83.6,71.5,29.80,ESE,108,1.0,5.0,67,0.00,,,0.04,Wunderground v.1.15,2013-02-06 08:26:00,
2013-02-06 18:31:00,83.5,71.8,29.80,ESE,109,2.0,6.0,68,0.00,,,0.04,Wunderground v.1.15,2013-02-06 08:31:00,
2013-02-06 18:36:00,83.3,71.6,29.80,ESE,109,2.0,6.0,68,0.00,,,0.04,Wunderground v.1.15,2013-02-06 08:36:00,
2013-02-06 18:41:00,83.2,72.0,29.80,ESE,109,2.0,6.0,69,0.00,,,0.04,Wunderground v.1.15,2013-02-06 08:41:00,
2013-02-06 18:46:00,83.0,72.2,29.80,ESE,109,4.0,6.0,70,0.00,,,0.04,Wunderground v.1.15,2013-02-06 08:46:00,
2013-02-06 18:51:00,82.9,72.5,29.80,ESE,108,2.0,3.0,71,0.00,,,0.04,Wunderground v.1.15,2013-02-06 08:51:00,
2013-02-06 18:56:00,82.7,72.7,29.80,ESE,109,2.0,7.0,72,0.00,,,0.04,Wunderground v.1.15,2013-02-06 08:56:00,
2013-02-06 19:01:00,82.6,72.2,29.80,ESE,109,5.0,6.0,71,0.00,,,0.04,Wunderground v.1.15,2013-02-06 09:01:00,
2013-02-06 19:06:00,82.6,72.7,29.81,ESE,108,1.0,7.0,72,0.00,,,0.04,Wunderground v.1.15,2013-02-06 09:06:00,
2013-02-06 19:11:00,82.5,72.6,29.81,ESE,108,3.0,4.0,72,0.00,,,0.04,Wunderground v.1.15,2013-02-06 09:11:00,
2013-02-06 19:16:00,82.4,72.9,29.81,ESE,109,1.0,7.0,73,0.00,,,0.04,Wunderground v.1.15,2013-02-06 09:16:00,
2013-02-06 19:21:00,82.2,72.7,29.81,ESE,109,3.0,4.0,73,0.00,,,0.04,Wunderground v.1.15,2013-02-06 09:21:00,
2013-02-06 19:26:00,82.1,72.6,29.81,ESE,109,5.0,6.0,73,0.00,,,0.04,Wunderground v.1.15,2013-02-06 09:26:00,
2013-02-06 19:31:00,82.1,72.6,29.81,ESE,109,2.0,4.0,73,0.00,,,0.04,Wunderground v.1.15,2013-02-06 09:31:00,
2013-02-06 19:36:00,82.0,72.9,29.81,ESE,109,1.0,4.0,74,0.00,,,0.04,Wunderground v.1.15,2013-02-06 09:36:00,
2013-02-06 19:41:00,81.8,72.7,29.81,ESE,109,3.0,5.0,74,0.00,,,0.04,Wunderground v.1.15,2013-02-06 09:41:00,
2013-02-06 19:46:00,81.6,72.9,29.81,ESE,109,0.0,5.0,75,0.00,,,0.04,Wunderground v.1.15,2013-02-06 09:46:00,
2013-02-06 19:51:00,81.3,72.6,29.81,ESE,109,0.0,1.0,75,0.00,,,0.04,Wunderground v.1.15,2013-02-06 09:51:00,
2013-02-06 19:56:00,80.8,72.5,29.81,ESE,109,0.0,2.0,76,0.00,,,0.04,Wunderground v.1.15,2013-02-06 09:56:00,
2013-02-06 20:01:00,80.5,72.2,29.82,ESE,109,2.0,2.0,76,0.00,,,0.04,Wunderground v.1.15,2013-02-06 10:01:00,
2013-02-06 20:06:00,80.4,72.5,29.82,ESE,108,0.0,2.0,77,0.00,,,0.04,Wunderground v.1.15,2013-02-06 10:06:00,
2013-02-06 20:11:00,80.2,72.3,29.82,ESE,109,0.0,0.0,77,0.00,,,0.04,Wunderground v.1.15,2013-02-06 10:11:00,
2013-02-06 20:16:00,79.9,72.4,29.82,ESE,108,0.0,2.0,78,0.00,,,0.04,Wunderground v.1.15,2013-02-06 10:16:00,
2013-02-06 20:21:00,80.0,72.5,29.82,ESE,108,0.0,1.0,78,0.00,,,0.04,Wunderground v.1.15,2013-02-06 10:21:00,
2013-02-06 20:26:00,79.9,72.4,29.83,ESE,108,0.0,1.0,78,0.00,,,0.04,Wunderground v.1.15,2013-02-06 10:26:00,
2013-02-06 20:31:00,79.6,72.5,29.83,ESE,109,1.0,1.0,79,0.00,,,0.04,Wunderground v.1.15,2013-02-06 10:31:00,
2013-02-06 20:36:00,79.3,72.2,29.82,ESE,109,1.0,1.0,79,0.00,,,0.04,Wunderground v.1.15,2013-02-06 10:36:00,
2013-02-06 20:41:00,79.3,72.6,29.82,ESE,109,0.0,0.0,80,0.00,,,0.04,Wunderground v.1.15,2013-02-06 10:41:00,
2013-02-06 20:46:00,79.1,72.4,29.82,ESE,109,0.0,2.0,80,0.00,,,0.04,Wunderground v.1.15,2013-02-06 10:46:00,
2013-02-06 20:51:00,78.7,72.4,29.83,ESE,109,1.0,1.0,81,0.00,,,0.04,Wunderground v.1.15,2013-02-06 10:51:00,
2013-02-06 20:56:00,78.4,72.4,29.83,ESE,108,0.0,1.0,82,0.00,,,0.04,Wunderground v.1.15,2013-02-06 10:56:00,
2013-02-06 21:01:00,78.2,72.6,29.83,ESE,109,0.0,0.0,83,0.00,,,0.04,Wunderground v.1.15,2013-02-06 11:01:00,
2013-02-06 21:06:00,78.0,72.8,29.83,ESE,109,0.0,2.0,84,0.00,,,0.04,Wunderground v.1.15,2013-02-06 11:06:00,
2013-02-06 21:11:00,78.0,72.8,29.83,ESE,108,0.0,0.0,84,0.00,,,0.04,Wunderground v.1.15,2013-02-06 11:11:00,
2013-02-06 21:16:00,77.9,72.7,29.83,ESE,109,0.0,1.0,84,0.00,,,0.04,Wunderground v.1.15,2013-02-06 11:16:00,
2013-02-06 21:21:00,77.7,72.5,29.83,ESE,109,1.0,1.0,84,0.00,,,0.04,Wunderground v.1.15,2013-02-06 11:21:00,
2013-02-06 21:26:00,77.7,72.8,29.83,ESE,109,0.0,2.0,85,0.00,,,0.04,Wunderground v.1.15,2013-02-06 11:26:00,
2013-02-06 21:31:00,77.6,72.7,29.83,ESE,109,0.0,1.0,85,0.00,,,0.04,Wunderground v.1.15,2013-02-06 11:31:00,
2013-02-06 21:36:00,77.5,72.6,29.84,ESE,109,0.0,1.0,85,0.00,,,0.04,Wunderground v.1.15,2013-02-06 11:36:00,
2013-02-06 21:41:00,77.3,72.4,29.84,ESE,108,0.0,1.0,85,0.00,,,0.04,Wunderground v.1.15,2013-02-06 11:41:00,
2013-02-06 21:46:00,77.2,72.7,29.84,ESE,109,0.0,1.0,86,0.00,,,0.04,Wunderground v.1.15,2013-02-06 11:46:00,
2013-02-06 21:51:00,77.0,72.5,29.84,ESE,109,0.0,0.0,86,0.00,,,0.04,Wunderground v.1.15,2013-02-06 11:51:00,
2013-02-06 21:56:00,76.7,72.5,29.84,ESE,108,0.0,0.0,87,0.00,,,0.04,Wunderground v.1.15,2013-02-06 11:56:00,
2013-02-06 22:01:00,76.6,72.4,29.85,ESE,109,0.0,1.0,87,0.00,,,0.04,Wunderground v.1.15,2013-02-06 12:01:00,
2013-02-06 22:06:00,76.6,72.8,29.85,ESE,108,0.0,1.0,88,0.00,,,0.04,Wunderground v.1.15,2013-02-06 12:06:00,
2013-02-06 22:11:00,76.4,72.6,29.85,ESE,108,0.0,1.0,88,0.00,,,0.04,Wunderground v.1.15,2013-02-06 12:11:00,
2013-02-06 22:16:00,76.3,72.5,29.85,ESE,109,0.0,1.0,88,0.00,,,0.04,Wunderground v.1.15,2013-02-06 12:16:00,
2013-02-06 22:22:00,76.3,72.5,29.85,ESE,109,0.0,1.0,88,0.00,,,0.04,Wunderground v.1.15,2013-02-06 12:22:00,
2013-02-06 22:27:00,76.3,72.5,29.85,ESE,109,0.0,1.0,88,0.00,,,0.04,Wunderground v.1.15,2013-02-06 12:27:00,
2013-02-06 22:32:00,76.2,72.4,29.85,ESE,109,0.0,1.0,88,0.00,,,0.04,Wunderground v.1.15,2013-02-06 12:32:00,
2013-02-06 22:37:00,76.3,72.8,29.85,ESE,109,0.0,2.0,89,0.00,,,0.04,Wunderground v.1.15,2013-02-06 12:37:00,
2013-02-06 22:42:00,76.2,72.4,29.85,ESE,109,0.0,1.0,88,0.00,,,0.04,Wunderground v.1.15,2013-02-06 12:42:00,
2013-02-06 22:47:00,76.1,72.3,29.85,ESE,108,0.0,1.0,88,0.00,,,0.04,Wunderground v.1.15,2013-02-06 12:47:00,
2013-02-06 22:52:00,76.1,72.3,29.85,ESE,109,0.0,0.0,88,0.00,,,0.04,Wunderground v.1.15,2013-02-06 12:52:00,
2013-02-06 22:57:00,76.0,72.5,29.85,ESE,109,0.0,0.0,89,0.00,,,0.04,Wunderground v.1.15,2013-02-06 12:57:00,
2013-02-06 23:02:00,75.9,72.4,29.85,ESE,109,0.0,1.0,89,0.00,,,0.04,Wunderground v.1.15,2013-02-06 13:02:00,
2013-02-06 23:07:00,75.9,72.4,29.85,ESE,109,0.0,1.0,89,0.00,,,0.04,Wunderground v.1.15,2013-02-06 13:07:00,
2013-02-06 23:12:00,75.9,72.4,29.85,ESE,108,0.0,0.0,89,0.00,,,0.04,Wunderground v.1.15,2013-02-06 13:12:00,
2013-02-06 23:17:00,75.8,72.3,29.85,ESE,109,0.0,1.0,89,0.00,,,0.04,Wunderground v.1.15,2013-02-06 13:17:00,
2013-02-06 23:22:00,75.8,72.3,29.85,ESE,108,0.0,0.0,89,0.00,,,0.04,Wunderground v.1.15,2013-02-06 13:22:00,
2013-02-06 23:27:00,75.9,72.4,29.85,ESE,108,0.0,1.0,89,0.00,,,0.04,Wunderground v.1.15,2013-02-06 13:27:00,
2013-02-06 23:32:00,75.8,72.3,29.85,ESE,108,0.0,1.0,89,0.00,,,0.04,Wunderground v.1.15,2013-02-06 13:32:00,
2013-02-06 23:37:00,75.8,72.3,29.85,ESE,109,0.0,1.0,89,0.00,,,0.04,Wunderground v.1.15,2013-02-06 13:37:00,
2013-02-06 23:42:00,76.0,72.5,29.85,ESE,109,0.0,1.0,89,0.00,,,0.04,Wunderground v.1.15,2013-02-06 13:42:00,
2013-02-06 23:47:00,76.1,72.3,29.85,ESE,108,0.0,1.0,88,0.00,,,0.04,Wunderground v.1.15,2013-02-06 13:47:00,
2013-02-06 23:52:00,76.2,72.4,29.85,ESE,109,0.0,0.0,88,0.00,,,0.04,Wunderground v.1.15,2013-02-06 13:52:00,
2013-02-06 23:57:00,76.4,72.6,29.84,ESE,109,0.0,1.0,88,0.00,,,0.04,Wunderground v.1.15,2013-02-06 13:57:00,